EW0890 Weather Reports


Display with metric or nautical units.
time (UTC)temp
F
wind
direction
speed
MPH
gust
MPH
rain 1hr
in
rain 24hr
in
rain mn
in
humidity
%
barometer
mb
20260508224510 61 234 11.0 14.0 0.00 0.12 0.10 76 1007.6
20260508223504 61 240 10.0 14.0 0.00 0.12 0.10 77 1007.7
20260508223015 61 245 10.0 13.0 0.00 0.12 0.10 77 1007.7
20260508222505 61 248 9.0 13.0 0.00 0.12 0.10 78 1007.7
20260508222008 61 241 10.0 13.0 0.00 0.12 0.10 77 1007.8
20260508221515 60 245 9.0 13.0 0.00 0.12 0.10 77 1007.8
20260508221004 60 243 8.0 13.0 0.00 0.12 0.10 79 1007.8
20260508220504 60 236 10.0 14.0 0.00 0.12 0.10 78 1007.9
20260508220016 60 258 11.0 14.0 0.00 0.12 0.10 74 1008.0
20260508215504 60 247 9.0 12.0 0.00 0.12 0.10 76 1008.0
20260508215007 60 252 9.0 13.0 0.00 0.12 0.10 75 1008.0
20260508214516 60 258 9.0 13.0 0.00 0.12 0.10 74 1008.0
20260508214006 60 254 9.0 13.0 0.00 0.12 0.10 75 1008.0
20260508213506 60 252 9.0 13.0 0.00 0.12 0.10 75 1007.9
20260508213022 60 244 10.0 14.0 0.00 0.12 0.10 75 1007.9
20260508212504 60 248 11.0 14.0 0.00 0.12 0.10 73 1007.8
20260508212005 60 266 10.0 14.0 0.00 0.12 0.10 73 1007.9
20260508211518 60 270 11.0 15.0 0.00 0.12 0.10 74 1008.0
20260508211004 60 255 11.0 15.0 0.00 0.12 0.10 74 1007.9
20260508210505 60 260 11.0 15.0 0.00 0.12 0.10 78 1007.9
20260508210018 60 250 10.0 15.0 0.00 0.12 0.10 76 1007.9
20260508205506 60 260 12.0 15.0 0.00 0.12 0.10 74 1007.8
20260508205010 60 252 11.0 14.0 0.00 0.12 0.10 76 1007.9
20260508204520 60 250 11.0 14.0 0.00 0.12 0.10 75 1007.9
20260508204005 60 253 10.0 13.0 0.00 0.12 0.10 76 1008.0
20260508203504 60 259 10.0 13.0 0.00 0.12 0.10 75 1007.9
20260508203019 60 244 10.0 13.0 0.00 0.12 0.10 75 1008.0
20260508202505 60 237 11.0 13.0 0.00 0.12 0.10 73 1007.9
20260508202005 60 238 10.0 12.0 0.00 0.12 0.10 74 1007.9
20260508201524 60 255 9.0 13.0 0.00 0.12 0.10 79 1008.0
20260508201009 60 255 11.0 13.0 0.00 0.12 0.10 75 1008.2
20260508200504 60 240 9.0 13.0 0.00 0.12 0.10 72 1008.2
20260508200022 60 225 9.0 13.0 0.00 0.12 0.10 76 1007.9
20260508195504 60 226 11.0 13.0 0.00 0.12 0.10 76 1008.1
20260508195005 60 236 10.0 13.0 0.00 0.12 0.10 78 1008.3
20260508194526 60 221 9.0 14.0 0.00 0.12 0.10 81 1008.3
20260508194006 60 238 9.0 14.0 0.00 0.13 0.10 79 1008.3
20260508193505 60 241 10.0 13.0 0.00 0.13 0.10 79 1008.5
20260508193021 60 234 10.0 13.0 0.00 0.14 0.10 79 1008.6
20260508192505 60 246 11.0 14.0 0.00 0.14 0.10 78 1008.8
20260508192003 60 252 11.0 14.0 0.00 0.14 0.10 76 1008.7
20260508191516 60 255 11.0 14.0 0.00 0.14 0.10 76 1009.0
20260508191007 60 253 11.0 14.0 0.00 0.14 0.10 78 1009.1
20260508190505 61 245 11.0 16.0 0.00 0.14 0.10 78 1009.1
20260508190017 61 251 11.0 16.0 0.00 0.14 0.10 77 1008.9
20260508185504 61 253 12.0 17.0 0.00 0.14 0.10 78 1009.1
20260508185004 61 251 14.0 17.0 0.00 0.14 0.10 77 1009.1
20260508184519 60 251 12.0 17.0 0.01 0.14 0.10 81 1009.2
20260508184004 60 255 12.0 15.0 0.03 0.14 0.10 80 1009.2
20260508183503 60 255 10.0 15.0 0.06 0.14 0.10 81 1009.1
20260508183005 60 268 11.0 15.0 0.07 0.14 0.10 79 1009.2
20260508181514 59 281 9.0 13.0 0.09 0.14 0.10 84 1009.2
20260508181004 58 247 9.0 13.0 0.09 0.14 0.10 83 1009.3
20260508180503 58 262 6.0 10.0 0.09 0.14 0.10 88 1009.3
20260508180010 57 294 7.0 9.0 0.09 0.14 0.10 87 1009.5
20260508175504 57 288 6.0 9.0 0.10 0.14 0.10 88 1009.5
20260508175005 56 282 5.0 8.0 0.10 0.14 0.10 88 1009.5
20260508174517 56 264 6.0 9.0 0.09 0.13 0.09 87 1009.6
20260508174006 56 250 7.0 10.0 0.07 0.11 0.07 85 1009.6
20260508173504 57 245 7.0 11.0 0.04 0.08 0.04 85 1009.5
20260508173034 57 250 9.0 11.0 0.03 0.07 0.03 83 1009.9
20260508172504 57 236 8.0 11.0 0.02 0.06 0.02 83 1009.9
20260508172003 57 253 8.0 12.0 0.02 0.06 0.02 83 1009.9
20260508171003 58 264 10.0 13.0 0.01 0.05 0.01 79 1010.2
20260508170504 58 256 7.0 10.0 0.01 0.05 0.01 80 1010.1
20260508170010 58 266 7.0 9.0 0.01 0.05 0.01 80 1010.1
20260508165004 58 267 7.0 9.0 0.00 0.04 0.00 79 1010.0
20260508164517 58 271 7.0 10.0 0.00 0.04 0.00 79 1009.9
20260508164004 58 276 7.0 12.0 0.00 0.04 0.00 77 1010.0
20260508163504 59 271 9.0 14.0 0.00 0.04 0.00 77 1009.9
20260508163021 59 271 11.0 16.0 0.00 0.04 0.00 74 1010.1
20260508162505 59 264 12.0 16.0 0.00 0.04 0.00 73 1010.2
20260508162007 60 265 14.0 18.0 0.00 0.04 0.00 68 1010.2
20260508161529 61 273 13.0 18.0 0.00 0.04 0.00 66 1010.2
20260508161003 61 286 13.0 18.0 0.00 0.04 0.00 67 1010.2
20260508160504 61 272 15.0 20.0 0.00 0.04 0.00 66 1010.3
20260508155503 61 270 14.0 22.0 0.00 0.04 0.00 66 1010.4
20260508154509 61 269 18.0 24.0 0.00 0.04 0.00 65 1010.7
20260508154006 61 276 17.0 23.0 0.00 0.04 0.00 65 1010.8
20260508153014 61 269 15.0 21.0 0.00 0.04 0.00 66 1010.6
20260508152506 61 253 15.0 21.0 0.00 0.04 0.00 66 1010.6
20260508152007 61 269 14.0 20.0 0.00 0.04 0.00 65 1010.3
20260508151520 62 255 14.0 20.0 0.00 0.04 0.00 64 1010.2
20260508151011 61 254 15.0 19.0 0.00 0.04 0.00 65 1010.3
20260508150514 61 262 14.0 19.0 0.00 0.04 0.00 66 1010.4
20260508150009 61 268 14.0 20.0 0.00 0.04 0.00 69 1010.4
20260508145502 61 274 17.0 20.0 0.00 0.04 0.00 66 1010.5
20260508145004 61 257 15.0 18.0 0.00 0.04 0.00 67 1010.5
20260508144004 60 246 12.0 18.0 0.00 0.04 0.00 70 1010.6
20260508143505 60 248 15.0 19.0 0.00 0.04 0.00 70 1010.6
20260508142010 58 231 14.0 21.0 0.00 0.04 0.00 73 1010.6
20260508141516 58 244 13.0 21.0 0.00 0.04 0.00 72 1010.6
20260508141005 58 214 14.0 17.0 0.00 0.04 0.00 73 1010.6
20260508140506 57 238 14.0 18.0 0.00 0.04 0.00 73 1010.6
20260508140026 57 227 14.0 18.0 0.00 0.04 0.00 74 1010.7
20260508135508 57 234 13.0 17.0 0.00 0.04 0.00 75 1010.7
20260508135008 57 236 13.0 17.0 0.00 0.04 0.00 76 1010.7
20260508134508 56 231 12.0 17.0 0.00 0.04 0.00 77 1010.7
20260508134004 56 226 12.0 16.0 0.00 0.04 0.00 77 1010.8
20260508133507 55 229 13.0 16.0 0.00 0.04 0.00 75 1010.8
20260508132505 55 209 11.0 16.0 0.00 0.04 0.00 76 1010.8
20260508130024 53 161 8.0 11.0 0.00 0.04 0.00 79 1011.0
20260508125507 53 157 7.0 9.0 0.00 0.04 0.00 80 1011.1
20260508125008 53 166 7.0 9.0 0.00 0.04 0.00 80 1011.1
20260508124523 53 154 7.0 9.0 0.00 0.04 0.00 81 1011.2
20260508124009 52 145 6.0 8.0 0.00 0.04 0.00 82 1011.2
20260508123510 52 146 6.0 8.0 0.00 0.04 0.00 82 1011.3
20260508123010 52 172 5.0 7.0 0.00 0.04 0.00 82 1011.3
20260508122503 51 159 5.0 6.0 0.00 0.04 0.00 84 1011.3
20260508122006 51 162 3.0 6.0 0.00 0.04 0.00 85 1011.4
20260508121006 50 154 1.0 2.0 0.00 0.04 0.00 86 1011.4
20260508120507 50 130 1.0 3.0 0.00 0.04 0.00 85 1011.4
20260508120017 50 141 1.0 5.0 0.00 0.04 0.00 85 1011.3
20260508115509 50 113 2.0 8.0 0.00 0.04 0.00 85 1011.0
20260508114521 50 169 5.0 8.0 0.00 0.04 0.00 85 1010.9
20260508114008 49 141 5.0 8.0 0.00 0.04 0.00 86 1010.9
20260508113507 49 159 5.0 8.0 0.00 0.04 0.00 87 1010.8
20260508113025 49 165 6.0 9.0 0.00 0.04 0.00 87 1010.9
20260508112508 48 167 7.0 9.0 0.00 0.04 0.00 87 1010.8
20260508112010 48 164 7.0 9.0 0.00 0.04 0.00 87 1010.8
20260508111514 48 167 6.0 8.0 0.00 0.04 0.00 87 1010.7
20260508111005 48 162 6.0 7.0 0.00 0.04 0.00 87 1010.9
20260508110505 48 166 5.0 6.0 0.00 0.04 0.00 86 1010.8
20260508110017 49 167 4.0 8.0 0.00 0.04 0.00 85 1010.8
20260508105506 49 164 4.0 8.0 0.00 0.04 0.00 84 1010.9
20260508105009 49 159 5.0 8.0 0.00 0.04 0.00 84 1010.8
20260508104522 49 153 5.0 8.0 0.00 0.04 0.00 85 1010.9
20260508104011 49 166 5.0 7.0 0.00 0.04 0.00 85 1010.9
20260508103507 49 171 3.0 5.0 0.00 0.04 0.00 84 1010.9
20260508102511 49 116 2.0 6.0 0.00 0.04 0.00 84 1010.9
20260508102003 50 148 3.0 6.0 0.00 0.04 0.00 84 1010.9
20260508101510 50 162 4.0 6.0 0.00 0.04 0.00 84 1010.9
20260508101004 49 146 4.0 6.0 0.00 0.04 0.00 84 1010.9
20260508100505 49 121 2.0 5.0 0.00 0.04 0.00 86 1011.0
20260508100018 49 126 2.0 5.0 0.00 0.04 0.00 87 1011.0
20260508095503 49 132 3.0 4.0 0.00 0.04 0.00 87 1011.1
20260508095002 49 105 2.0 4.0 0.00 0.04 0.00 87 1011.1
20260508094008 48 140 2.0 3.0 0.00 0.04 0.00 88 1011.2
20260508093507 49 110 0.0 4.0 0.00 0.04 0.00 87 1011.3
20260508092507 49 120 3.0 6.0 0.00 0.04 0.00 86 1011.1
20260508092010 49 141 3.0 6.0 0.00 0.04 0.00 87 1011.1
20260508091527 48 156 4.0 6.0 0.00 0.04 0.00 88 1011.0
20260508091004 48 138 3.0 5.0 0.00 0.04 0.00 88 1011.1
20260508090504 48 115 3.0 3.0 0.00 0.04 0.00 88 1011.2
20260508090009 48 127 3.0 3.0 0.00 0.04 0.00 88 1011.3
20260508085502 48 120 2.0 3.0 0.00 0.04 0.00 88 1011.3
20260508085004 48 125 2.0 2.0 0.00 0.04 0.00 86 1011.4
20260508084512 49 261 0.0 0.0 0.00 0.04 0.00 86 1011.4
20260508084004 49 261 0.0 0.0 0.00 0.04 0.00 87 1011.5
20260508083507 49 261 0.0 0.0 0.00 0.04 0.00 86 1011.5
20260508083019 49 261 0.0 0.0 0.00 0.04 0.00 85 1011.5
20260508082508 49 261 0.0 0.0 0.00 0.04 0.00 85 1011.5
20260508082008 49 261 0.0 1.0 0.00 0.04 0.00 85 1011.5
20260508081529 50 355 0.0 2.0 0.00 0.04 0.00 84 1011.6
20260508081009 50 355 0.0 4.0 0.00 0.04 0.00 83 1011.6
20260508080517 50 289 2.0 6.0 0.00 0.04 0.00 82 1011.5
20260508080026 51 292 1.0 11.0 0.00 0.04 0.00 83 1011.7
20260508075504 50 305 2.0 11.0 0.00 0.04 0.00 82 1011.6
20260508075003 50 79 5.0 11.0 0.00 0.04 0.00 85 1011.6
20260508074510 50 312 4.0 8.0 0.00 0.04 0.00 84 1011.6
20260508074003 50 202 6.0 9.0 0.00 0.04 0.00 85 1011.1
20260508073016 49 207 6.0 8.0 0.00 0.04 0.00 86 1011.2
20260508072503 49 200 6.0 8.0 0.00 0.04 0.00 87 1011.2
20260508072007 49 205 5.0 9.0 0.00 0.04 0.00 87 1011.2
20260508071527 49 185 7.0 9.0 0.00 0.04 0.00 87 1011.2
20260508070507 49 193 6.0 10.0 0.00 0.04 0.00 86 1011.2
20260508070027 50 209 6.0 10.0 0.00 0.04 0.00 86 1011.2
20260508065508 50 207 7.0 10.0 0.00 0.04 0.00 86 1011.2
20260508064526 50 214 7.0 10.0 0.00 0.04 0.00 86 1011.4
20260508063505 49 212 7.0 9.0 0.00 0.04 0.00 88 1011.4
20260508063012 49 200 5.0 9.0 0.00 0.04 0.00 88 1011.5
20260508062507 49 186 7.0 10.0 0.00 0.04 0.00 88 1011.5
20260508062004 49 175 7.0 10.0 0.00 0.04 0.00 89 1011.6
20260508061522 49 191 7.0 9.0 0.00 0.04 0.00 89 1011.6
20260508061008 48 167 6.0 9.0 0.00 0.04 0.00 89 1011.6
20260508060508 48 170 6.0 8.0 0.00 0.04 0.00 90 1011.7
20260508060026 48 174 5.0 7.0 0.00 0.04 0.00 90 1011.7
20260508055508 48 173 5.0 6.0 0.00 0.04 0.00 90 1011.8
20260508054524 48 182 4.0 5.0 0.00 0.04 0.00 90 1011.9
20260508053030 49 177 5.0 6.0 0.00 0.04 0.00 89 1011.9
20260508052505 49 203 5.0 6.0 0.00 0.04 0.00 89 1012.0
20260508051521 49 209 5.0 7.0 0.00 0.04 0.00 88 1011.9
20260508050508 50 185 6.0 8.0 0.02 0.04 0.00 88 1011.9
20260508050020 50 192 7.0 8.0 0.02 0.04 0.00 88 1012.0
20260508045506 49 212 5.0 7.0 0.02 0.04 0.04 89 1012.1
20260508044523 49 231 3.0 3.0 0.02 0.04 0.04 89 1012.3
20260508043512 50 205 2.0 3.0 0.02 0.04 0.04 89 1012.4
20260508043023 50 236 0.0 4.0 0.02 0.04 0.04 89 1012.5
20260508042009 51 287 3.0 10.0 0.02 0.04 0.04 88 1012.6
20260508041526 51 254 7.0 11.0 0.02 0.04 0.04 88 1012.5
20260508040504 51 267 6.0 7.0 0.00 0.02 0.02 87 1012.7
20260508040015 51 229 5.0 6.0 0.00 0.02 0.02 87 1012.2
20260508035507 50 210 5.0 6.0 0.00 0.02 0.02 87 1012.0
20260508034519 50 201 3.0 5.0 0.00 0.02 0.02 87 1011.9
20260508033514 50 209 4.0 6.0 0.00 0.02 0.02 86 1011.9
20260508033026 51 174 2.0 4.0 0.00 0.02 0.02 85 1012.1
20260508031527 52 212 3.0 10.0 0.00 0.02 0.02 83 1012.3
20260508031010 52 221 5.0 10.0 0.00 0.02 0.02 81 1012.4
20260508030027 52 231 7.0 15.0 0.00 0.02 0.02 81 1012.7
20260508024516 51 198 9.0 14.0 0.00 0.02 0.02 81 1011.9
20260508022507 51 209 8.0 10.0 0.00 0.02 0.02 83 1012.0
20260508014527 51 214 9.0 11.0 0.00 0.02 0.02 80 1011.6
20260508003028 55 214 9.0 15.0 0.00 0.02 0.02 71 1011.3
20260508002009 55 212 11.0 15.0 0.00 0.02 0.02 72 1011.2
20260507235508 57 229 11.0 18.0 0.00 0.02 0.02 65 1011.4
20260507235010 58 234 13.0 18.0 0.00 0.02 0.02 64 1011.5
20260507234525 58 228 14.0 18.0 0.00 0.02 0.02 62 1011.5
20260507234010 58 246 13.0 17.0 0.00 0.02 0.02 62 1011.6
20260507233516 58 246 13.0 16.0 0.00 0.02 0.02 60 1011.6
20260507233009 59 252 13.0 17.0 0.00 0.02 0.02 57 1011.6
20260507232007 59 249 14.0 21.0 0.00 0.02 0.02 60 1011.7
20260507231530 60 268 15.0 21.0 0.00 0.02 0.02 57 1011.6
20260507231006 60 256 16.0 21.0 0.00 0.02 0.02 56 1011.5
20260507230509 60 272 17.0 24.0 0.00 0.02 0.02 55 1011.5
20260507230023 59 254 16.0 24.0 0.00 0.02 0.02 56 1011.5
20260507225507 60 255 16.0 22.0 0.00 0.02 0.02 55 1011.6